Weather in Tugurgoy

Russia / Republic of Adygea     44°57′04″N   39°06′47″E
temp.,
°C
wind,
m/s
gust,
m/s
humid.,
%
clouds,
%
prec.,
mm/h
press.,
hPa
HPBL,
m
14 may, fri
fri1400:00+15ese36865 0.0 1009104
03:00+15se22820 0.0 100931
06:00+15se23725 0.0 100938
09:00+22se22476 0.0 1010190
12:00+28ese11385 0.0 1010588
15:00+29ene113815 0.0 1010827
18:00+28wnw1153100 0.0 100911
21:00+19w477741 0.0 1011140
15 may, sat
sat1500:00+17w23640 0.0 101175
03:00+15wnw36670 0.0 1013123
06:00+15w24735 0.0 1013106
09:00+21w11545 0.0 1014399
12:00+25ese11455 0.0 1014838
15:00+27ene21465 0.0 1013978
18:00+25e23602 0.0 1012640
21:00+21nne24790 0.1 101170
16 may, sun
sun1600:00+19ese018755 0.1 101114
03:00+18n1290100 0.2 101040
06:00+18nne1294100 1.0 101064
09:00+22ne2281100 1.1 1009368
12:00+26e456886 0.0 1007784
15:00+29ene466237 0.0 10061241
18:00+27ene47713 0.0 1004617
21:00+23ene4108758 0.0 1003273
17 may, mon
mon1700:00+20ese3689100 0.0 1002123
03:00+20nnw119037 0.0 100311
06:00+20s228198 0.0 100427
09:00+24s61256100 0.0 1006663
12:00+25sw71147100 0.5 10071062
15:00+24sw685271 0.5 1008929
18:00+22sw3563100 0.0 1009466
21:00+18ssw367097 0.0 1011159
18 may, tue
tue1800:00+16sw3773100 0.0 1011173
03:00+16sw4983100 0.0 1012363
06:00+16sw498593 0.0 1014432
09:00+20sw346886 0.0 1014748
12:00+24sw445713 0.0 10141291
15:00+24sw545541 0.0 10141382
18:00+21sw44660 0.0 1014613
21:00+17sw35782 0.0 1015135